Temp
-2 -2 -2 -2 -2 -2 -1 -1 -1 -1 -1 -1 -1 -1 -1 -1 -1 -1 -0 -0 -0 -0 -0 -0 -0 -0 -0 -0 -1 -1 -1 -0 -0 -0 0 0 0 0 0 1 1 2 2 2 3 3 4 4 5 5 6 6 6 7 7 7 7 7 7 7 8 8 8 8 9 10 12 14 14
-3 -3 -2 -2 -2 -2 -2 -1 -1 -1 -2 -2 -2 -1 -1 -1 -1 -1 -1 -1 -1 -1 -1 -0 -0 -0 -1 -1 -1 -1 -0 -0 -0 -0 -0 -0 -0 -0 0 1 1 1 2 2 3 3 4 4 5 5 6 6 6 7 7 7 7 7 7 7 7 8 8 8 8 10 12 13 14
-3 -3 -2 -2 -2 -2 -2 -2 -2 -2 -2 -2 -2 -1 -1 -1 -1 -1 -1 -1 -1 -1 -1 -1 -1 -1 -1 -1 -1 -0 -0 -0 -1 -1 -1 -1 -0 -0 0 0 1 1 2 2 3 3 4 4 4 5 5 6 6 7 7 7 7 7 7 7 7 8 8 8 8 9 10 12 13
-3 -3 -3 -2 -2 -2 -2 -2 -2 -2 -2 -2 -2 -2 -1 -1 -1 -1 -1 -1 -1 -1 -1 -1 -1 -1 -1 -0 -0 -1 -1 -1 -1 -1 -1 -0 -0 -0 0 0 1 1 2 2 3 3 3 4 4 5 5 6 6 7 7 7 7 7 7 7 7 8 8 8 8 8 9 10 11
-3 -3 -3 -2 -2 -2 -2 -2 -2 -2 -2 -2 -2 -2 -2 -2 -2 -2 -1 -1 -1 -1 -1 -1 -1 -1 -1 -1 -1 -1 -1 -1 -0 -0 -0 -0 -0 -0 0 1 1 1 2 2 3 3 3 4 5 5 5 6 6 7 7 7 7 7 7 7 7 7 8 8 7 7 8 9 9
-3 -3 -3 -2 -2 -2 -2 -2 -3 -3 -3 -2 -2 -2 -2 -2 -2 -2 -2 -1 -1 -1 -1 -1 -1 -1 -1 -1 -1 -1 -0 -0 -0 -0 -0 -0 0 0 0 1 1 1 2 2 3 3 3 4 4 5 5 6 6 7 7 6 6 6 6 6 6 7 7 7 7 7 8 8 8
-3 -3 -3 -2 -2 -3 -3 -3 -3 -3 -3 -2 -2 -2 -2 -2 -2 -2 -2 -2 -2 -1 -1 -1 -1 -1 -1 -1 -1 -0 -0 -0 -0 0 0 0 0 1 1 1 1 2 2 2 3 3 3 4 4 5 5 6 6 7 7 6 6 5 5 5 6 6 7 7 7 7 7 8 8
-3 -3 -3 -3 -3 -3 -3 -3 -3 -3 -3 -3 -2 -2 -2 -2 -2 -2 -2 -2 -2 -1 -1 -1 -1 -1 -1 -1 -1 -0 -0 -0 0 0 0 1 1 1 1 1 2 2 2 2 3 3 3 4 4 5 5 5 6 6 7 6 5 5 4 4 5 5 6 6 7 7 7 7 7
-3 -3 -3 -3 -3 -3 -3 -3 -3 -3 -3 -3 -3 -3 -3 -3 -2 -2 -2 -2 -2 -1 -1 -1 -1 -1 -1 -1 -1 -1 -0 -0 0 0 1 1 1 1 1 2 2 2 2 3 3 3 4 4 4 5 5 5 6 6 7 6 5 5 4 4 4 5 6 7 7 8 8 8 8
-3 -3 -3 -3 -3 -3 -3 -3 -3 -3 -3 -3 -3 -3 -3 -3 -3 -3 -2 -2 -2 -1 -1 -1 -1 -1 -1 -1 -1 -1 -1 -1 -0 0 0 1 1 2 2 2 2 2 3 3 3 3 4 4 4 4 5 5 6 6 6 6 6 5 4 4 4 5 6 7 7 8 8 9 9
-3 -3 -3 -3 -3 -4 -4 -3 -3 -3 -3 -3 -3 -3 -3 -3 -3 -3 -2 -2 -2 -2 -1 -1 -1 -1 -1 -1 -1 -1 -1 -1 -1 -0 0 1 1 1 2 2 2 3 3 3 3 4 4 4 4 4 5 5 5 6 6 6 6 5 5 5 5 5 6 6 6 7 8 8 8
-3 -3 -3 -3 -4 -4 -4 -4 -3 -3 -3 -3 -3 -3 -3 -3 -3 -3 -3 -2 -2 -2 -2 -2 -2 -2 -2 -2 -2 -2 -2 -1 -1 -0 0 1 1 1 1 1 2 2 3 3 3 4 4 4 4 4 4 5 5 5 6 6 6 6 6 5 6 6 6 6 6 6 7 7 8
-4 -3 -3 -4 -4 -4 -4 -4 -4 -4 -4 -4 -4 -4 -3 -3 -3 -3 -3 -3 -2 -2 -2 -2 -2 -2 -2 -2 -2 -2 -2 -1 -1 -1 -0 0 0 -0 -0 0 1 1 2 3 4 4 4 4 4 4 4 5 5 5 6 6 6 6 6 6 6 6 6 6 6 6 6 6 6
-4 -4 -4 -4 -4 -4 -4 -4 -4 -4 -4 -4 -4 -4 -4 -4 -3 -3 -3 -3 -2 -2 -2 -2 -2 -2 -2 -2 -2 -2 -2 -2 -1 -1 -1 -0 -0 -0 -1 -1 -0 0 1 2 3 4 4 4 4 4 4 4 5 5 6 6 6 6 6 6 6 6 6 6 6 6 5 5 5
-4 -4 -4 -4 -4 -5 -5 -4 -4 -4 -4 -4 -4 -4 -4 -4 -4 -3 -3 -3 -2 -2 -2 -2 -2 -2 -2 -2 -2 -2 -2 -2 -2 -2 -1 -1 -0 -0 -0 -1 -1 -0 1 1 2 3 4 4 4 4 4 4 4 5 5 5 6 6 6 5 5 6 6 6 6 6 5 5 5
-4 -4 -4 -4 -5 -5 -5 -5 -5 -5 -5 -5 -4 -4 -4 -4 -4 -4 -3 -3 -3 -2 -2 -2 -2 -2 -2 -3 -3 -2 -2 -2 -2 -2 -2 -1 -1 -0 -0 -1 -1 -1 -0 0 1 1 2 3 3 3 3 3 4 4 5 5 5 5 5 5 5 5 5 5 5 5 5 5 5
-5 -5 -5 -5 -5 -5 -5 -5 -5 -5 -5 -5 -5 -4 -4 -4 -4 -4 -4 -3 -3 -3 -2 -2 -2 -2 -3 -3 -3 -3 -3 -3 -3 -2 -2 -2 -1 -1 -0 -1 -1 -1 -1 -1 -0 0 1 1 2 2 2 3 3 3 3 3 4 4 4 4 4 5 5 5 5 5 5 5 5
-5 -5 -5 -5 -5 -5 -5 -5 -5 -5 -5 -5 -5 -5 -4 -4 -4 -4 -4 -4 -3 -3 -3 -2 -2 -3 -3 -3 -3 -3 -3 -3 -3 -3 -3 -2 -2 -1 -1 -0 -1 -1 -1 -1 -1 -1 -1 -0 0 1 1 2 2 2 2 2 2 2 3 3 3 3 4 4 4 4 4 4 4
-5 -5 -6 -6 -6 -6 -6 -6 -6 -6 -5 -5 -5 -5 -5 -4 -4 -4 -4 -4 -3 -3 -3 -3 -3 -3 -3 -3 -3 -3 -3 -3 -3 -3 -3 -3 -2 -2 -1 -1 -1 -1 -1 -1 -1 -1 -1 -1 -1 -1 -0 0 1 1 1 1 1 1 1 2 2 2 2 3 3 3 4 4 4
-6 -6 -6 -6 -6 -6 -6 -6 -6 -6 -5 -5 -5 -5 -5 -5 -4 -4 -4 -4 -4 -3 -3 -3 -3 -3 -3 -3 -3 -3 -3 -3 -3 -3 -3 -3 -2 -2 -2 -1 -0 -0 -1 -1 -1 -1 -1 -1 -2 -2 -1 -1 -1 -1 -0 -0 -0 -0 -0 0 0 1 1 1 2 2 2 3 3
-6 -6 -6 -6 -6 -6 -6 -6 -6 -6 -5 -5 -5 -5 -5 -5 -5 -4 -4 -4 -4 -4 -3 -3 -3 -3 -3 -3 -3 -3 -3 -3 -3 -3 -3 -2 -2 -2 -2 -2 -1 -0 -0 -1 -1 -1 -1 -1 -2 -2 -2 -2 -1 -1 -1 -1 -1 -1 -1 -1 -0 -0 0 0 1 1 1 2 2
-6 -6 -6 -6 -6 -6 -6 -6 -6 -6 -6 -5 -5 -5 -5 -5 -5 -5 -4 -4 -4 -4 -3 -3 -3 -3 -3 -3 -3 -3 -3 -3 -3 -2 -2 -2 -2 -2 -2 -2 -2 -1 -0 -0 -1 -1 -1 -1 -1 -1 -2 -2 -2 -2 -1 -1 -1 -1 -1 -1 -1 -1 -0 -0 0 0 1 1 2
-7 -7 -7 -7 -7 -6 -6 -6 -6 -6 -6 -6 -5 -5 -5 -5 -5 -5 -5 -4 -4 -4 -4 -3 -3 -3 -3 -3 -3 -3 -3 -3 -3 -2 -2 -2 -2 -2 -1 -1 -2 -1 -1 -0 -0 -1 -1 -1 -1 -1 -1 -2 -2 -2 -2 -1 -1 -1 -1 -1 -1 -0 -0 -0 -0 0 0 0 1
-7 -7 -7 -7 -7 -7 -7 -6 -6 -6 -6 -6 -6 -5 -5 -5 -5 -5 -5 -5 -4 -4 -4 -3 -3 -3 -3 -3 -3 -3 -4 -4 -3 -3 -2 -2 -2 -2 -1 -1 -2 -2 -1 -0 -0 -1 -1 -1 -1 -1 -2 -2 -2 -2 -2 -2 -2 -1 -1 -1 -1 -0 -0 -0 0 0 0 0 0
-7 -7 -7 -7 -7 -7 -7 -7 -7 -6 -6 -6 -6 -6 -5 -5 -5 -5 -5 -5 -5 -4 -4 -4 -3 -3 -3 -3 -3 -3 -4 -4 -4 -3 -3 -3 -2 -2 -2 -1 -2 -2 -2 -1 0 -0 -1 -1 -2 -2 -2 -2 -2 -2 -2 -2 -2 -2 -1 -1 -1 -0 -0 -0 0 0 0 0 0
-8 -8 -8 -7 -7 -7 -7 -7 -7 -7 -7 -6 -6 -6 -6 -6 -5 -5 -5 -5 -5 -5 -4 -4 -3 -3 -3 -3 -3 -3 -4 -4 -4 -4 -3 -3 -3 -3 -2 -2 -2 -2 -2 -2 -0 -0 -1 -1 -2 -2 -2 -2 -2 -2 -2 -2 -2 -2 -2 -1 -1 -1 -1 -0 -0 -0 -0 0 0
-8 -8 -8 -8 -8 -7 -7 -7 -7 -7 -7 -7 -6 -6 -6 -6 -6 -5 -5 -5 -5 -5 -5 -4 -4 -3 -3 -3 -3 -3 -4 -4 -4 -4 -3 -3 -3 -3 -3 -3 -2 -2 -2 -2 -1 -0 -1 -1 -1 -2 -2 -2 -2 -2 -2 -2 -2 -2 -2 -2 -1 -1 -1 -1 -1 -1 -0 -0 -0
-8 -8 -8 -8 -8 -8 -8 -7 -7 -7 -7 -7 -7 -7 -6 -6 -6 -6 -5 -5 -5 -5 -5 -5 -4 -4 -4 -3 -3 -4 -4 -4 -4 -4 -3 -3 -3 -3 -3 -3 -3 -2 -2 -2 -1 -1 -1 -1 -2 -2 -2 -2 -2 -2 -2 -3 -3 -2 -2 -2 -2 -1 -1 -1 -1 -1 -1 -0 -0
-9 -8 -8 -8 -8 -8 -8 -8 -8 -7 -7 -7 -7 -7 -7 -6 -6 -6 -6 -5 -5 -5 -5 -5 -5 -5 -4 -4 -4 -4 -4 -4 -4 -4 -3 -3 -3 -3 -3 -3 -3 -2 -2 -2 -1 -1 -1 -1 -2 -2 -2 -2 -2 -2 -3 -3 -3 -2 -2 -2 -2 -2 -2 -1 -1 -1 -1 -1 -1
-9 -9 -8 -8 -8 -8 -8 -8 -8 -8 -8 -8 -8 -7 -7 -7 -7 -6 -6 -6 -5 -5 -5 -5 -5 -5 -5 -4 -4 -4 -4 -4 -4 -4 -3 -3 -3 -3 -3 -3 -3 -3 -2 -2 -1 -0 -1 -1 -2 -2 -2 -2 -2 -2 -3 -3 -3 -3 -2 -2 -2 -2 -2 -2 -2 -1 -1 -1 -1
-9 -9 -9 -9 -8 -8 -8 -8 -8 -8 -8 -8 -8 -8 -8 -7 -7 -7 -7 -6 -6 -5 -5 -5 -5 -5 -5 -5 -5 -4 -4 -4 -4 -4 -4 -3 -3 -3 -3 -3 -3 -3 -2 -2 -1 -0 -1 -2 -2 -2 -2 -2 -3 -3 -3 -3 -3 -3 -3 -2 -2 -2 -2 -2 -2 -2 -2 -1 -1
-9 -9 -9 -9 -9 -8 -8 -8 -8 -8 -8 -8 -8 -8 -8 -8 -8 -7 -7 -7 -6 -6 -6 -6 -5 -5 -5 -5 -5 -5 -4 -4 -4 -4 -4 -3 -3 -3 -3 -3 -3 -3 -3 -1 -0 -1 -1 -2 -2 -2 -3 -3 -3 -3 -3 -3 -3 -3 -3 -3 -3 -3 -3 -2 -2 -2 -2 -2 -2
-9 -9 -9 -9 -9 -8 -8 -8 -8 -8 -8 -8 -8 -8 -8 -8 -8 -8 -7 -7 -7 -6 -6 -6 -6 -6 -5 -5 -5 -5 -5 -4 -4 -4 -4 -4 -3 -3 -3 -4 -3 -3 -3 -1 -1 -1 -2 -2 -2 -2 -3 -3 -3 -3 -3 -3 -3 -3 -3 -3 -3 -3 -3 -3 -3 -3 -2 -2 -2
-9 -9 -9 -9 -9 -9 -8 -8 -8 -8 -8 -8 -8 -8 -8 -8 -8 -8 -8 -8 -7 -7 -7 -6 -6 -6 -6 -6 -5 -5 -5 -5 -4 -4 -4 -4 -4 -4 -4 -4 -3 -3 -3 -2 -1 -1 -2 -2 -2 -3 -3 -3 -3 -3 -3 -3 -3 -3 -3 -3 -3 -3 -3 -3 -3 -3 -3 -2 -2
-9 -9 -9 -9 -9 -9 -8 -8 -8 -8 -8 -9 -9 -9 -9 -9 -9 -8 -8 -8 -8 -7 -7 -7 -7 -6 -6 -6 -6 -5 -5 -5 -5 -5 -4 -4 -4 -4 -4 -4 -3 -3 -3 -2 -1 -2 -2 -2 -3 -3 -3 -3 -3 -3 -3 -3 -3 -3 -3 -3 -3 -3 -3 -3 -3 -3 -3 -2 -2
-10 -10 -9 -9 -9 -9 -9 -9 -8 -9 -9 -9 -9 -9 -9 -9 -9 -9 -8 -8 -8 -8 -7 -7 -7 -7 -6 -6 -6 -5 -5 -5 -5 -5 -5 -4 -4 -4 -4 -4 -3 -3 -3 -3 -2 -2 -2 -3 -3 -3 -3 -3 -3 -3 -3 -3 -3 -3 -3 -3 -3 -3 -3 -3 -3 -3 -3 -2 -2
-10 -10 -9 -9 -9 -9 -9 -9 -9 -9 -9 -9 -9 -9 -9 -9 -9 -9 -9 -8 -8 -8 -8 -7 -7 -7 -7 -6 -6 -6 -5 -5 -5 -5 -5 -5 -5 -4 -4 -4 -4 -3 -3 -3 -2 -2 -2 -3 -3 -3 -3 -3 -3 -3 -3 -3 -3 -3 -3 -3 -3 -3 -3 -3 -3 -3 -2 -2 -2
-10 -10 -9 -9 -9 -9 -9 -9 -9 -9 -9 -9 -9 -9 -9 -9 -9 -9 -9 -9 -9 -8 -8 -8 -7 -7 -7 -7 -6 -6 -5 -5 -5 -5 -5 -5 -5 -5 -4 -4 -4 -3 -3 -3 -2 -2 -2 -3 -3 -3 -3 -3 -3 -3 -3 -2 -3 -3 -3 -3 -3 -3 -3 -3 -3 -3 -2 -2 -2
-10 -10 -9 -9 -9 -9 -9 -9 -9 -9 -9 -9 -10 -10 -9 -9 -9 -9 -9 -9 -9 -8 -8 -8 -8 -7 -7 -7 -6 -6 -6 -5 -5 -5 -5 -5 -5 -5 -5 -4 -4 -4 -3 -3 -3 -2 -2 -3 -3 -3 -3 -3 -3 -3 -3 -3 -2 -2 -3 -3 -3 -3 -3 -3 -3 -3 -2 -2 -2
-10 -10 -9 -9 -9 -9 -9 -9 -9 -9 -10 -10 -10 -10 -10 -10 -10 -9 -9 -9 -9 -8 -8 -8 -8 -8 -7 -7 -7 -6 -6 -6 -5 -5 -5 -5 -5 -5 -5 -5 -4 -4 -4 -4 -3 -3 -2 -3 -3 -3 -3 -3 -3 -3 -3 -3 -2 -2 -3 -3 -3 -3 -3 -3 -3 -3 -3 -2 -2
-10 -10 -9 -9 -9 -9 -9 -9 -9 -10 -10 -10 -10 -10 -10 -10 -10 -9 -9 -9 -9 -8 -8 -8 -8 -8 -7 -7 -7 -7 -6 -6 -6 -6 -5 -5 -5 -5 -5 -5 -5 -4 -4 -4 -4 -3 -3 -3 -3 -3 -3 -4 -3 -3 -3 -3 -3 -3 -3 -3 -3 -3 -3 -3 -3 -3 -3 -3 -2
Height
819 817 816 814 812 810 808 806 805 803 801 799 797 795 793 790 789 786 785 783 781 779 776 774 771 769 766 764 762 760 757 755 753 751 749 747 745 743 741 740 738 737 735 733 732 730 729 727 726 725 724 723 721 721 720 719 718 718 717 717 715 715 715 717 716 712 709 708 708
819 817 816 814 812 810 808 806 805 803 801 799 797 795 793 791 789 787 785 783 781 779 776 773 771 768 765 763 761 759 757 754 752 750 747 745 743 741 740 738 736 735 734 732 730 729 727 726 725 724 722 721 720 720 718 717 716 716 716 715 714 713 714 715 715 713 709 706 706
819 817 815 814 812 810 809 806 805 803 801 799 797 795 794 792 790 787 785 783 781 779 776 773 770 767 765 762 760 758 756 754 751 748 746 743 741 740 738 736 735 733 732 731 729 728 726 725 724 723 721 720 719 718 716 715 715 715 714 713 712 711 711 712 714 713 710 705 704
819 817 815 814 812 811 809 807 805 803 801 799 797 795 794 792 790 788 785 783 780 778 775 773 770 767 764 762 759 757 755 752 750 747 745 742 740 738 736 735 733 731 730 729 727 726 725 724 722 721 720 719 718 716 715 713 712 712 712 712 710 710 710 711 713 714 711 707 704
819 818 816 814 813 811 810 808 806 804 801 799 797 795 794 792 790 787 785 782 780 777 775 772 769 766 764 761 758 755 753 750 749 746 744 741 739 736 735 733 731 730 728 727 725 724 723 722 721 720 718 717 716 715 713 712 710 710 710 710 709 709 709 711 712 713 712 709 706
820 818 816 815 813 811 810 808 806 804 802 800 798 796 794 792 790 787 785 782 779 776 774 771 769 766 763 760 757 754 751 749 747 745 742 740 737 735 733 731 730 728 727 725 724 722 721 720 719 718 717 716 715 714 713 711 709 709 709 710 709 708 709 710 712 713 712 709 708
820 818 816 815 813 811 810 808 806 804 802 800 798 796 794 792 789 787 785 782 779 776 773 771 768 765 762 759 756 753 750 748 745 743 741 739 736 734 732 730 728 726 725 723 722 720 719 718 717 716 715 715 714 713 712 711 709 708 710 711 710 710 710 710 711 711 710 708 708
821 819 817 815 814 812 810 808 806 804 802 800 798 796 794 791 789 786 784 781 778 776 773 770 768 765 762 759 756 753 750 747 745 742 740 737 735 733 730 728 726 725 723 721 720 719 717 716 715 714 714 713 712 712 711 710 709 709 712 714 714 714 713 710 710 710 709 708 709
821 819 817 815 814 812 810 808 806 804 802 800 798 796 794 791 789 786 783 780 778 776 773 770 768 765 762 759 756 753 750 747 744 741 739 736 734 731 729 727 725 722 720 719 718 717 715 715 713 712 712 711 711 710 710 710 709 710 713 715 715 715 712 709 708 707 707 707 707
821 819 817 815 813 812 810 808 806 804 802 800 798 796 793 791 788 786 783 781 778 775 773 770 768 765 762 759 756 753 750 747 744 741 739 736 733 730 728 725 723 721 719 717 716 715 714 712 711 710 710 710 710 709 709 709 709 710 712 713 713 711 708 706 706 706 705 705 705
821 820 818 816 814 812 810 808 805 804 802 800 798 795 793 790 788 785 783 781 778 775 773 770 768 765 762 759 756 753 750 747 745 741 739 736 733 730 727 724 722 720 717 715 714 713 712 710 710 709 708 708 708 708 708 708 708 709 710 711 710 708 706 705 706 706 706 705 705
822 820 818 816 814 812 810 808 806 804 802 800 798 795 793 790 788 785 783 780 778 775 773 770 768 765 762 759 756 753 750 747 745 742 739 736 733 730 727 724 721 719 716 714 712 711 710 709 708 707 706 706 706 706 706 707 708 708 709 709 708 707 706 706 707 707 707 706 705
822 820 818 816 815 812 810 808 806 804 802 800 798 795 793 790 788 785 783 780 778 775 773 770 768 766 763 760 757 754 751 748 745 742 740 737 734 730 727 724 720 718 715 713 711 710 709 707 707 706 705 705 704 704 705 705 706 706 707 707 707 706 706 706 707 708 708 707 707
823 821 819 817 815 813 811 809 806 804 802 800 798 795 793 790 788 785 783 780 778 776 773 771 768 766 764 761 758 755 752 749 746 743 740 737 734 731 728 724 721 718 715 712 710 709 708 706 705 705 705 704 703 702 703 703 704 705 705 705 705 705 705 705 706 707 707 708 708
823 821 819 817 815 813 811 809 807 805 802 800 798 796 793 791 788 786 783 781 778 776 774 771 769 766 764 761 759 755 752 750 747 744 741 738 735 732 729 726 722 719 715 713 710 709 708 706 705 704 703 703 702 702 701 701 702 702 703 704 704 704 704 704 704 705 706 707 707
824 822 820 818 816 814 812 810 808 805 803 801 798 796 794 791 789 786 784 781 779 776 774 772 769 767 764 762 759 756 753 750 748 745 742 739 736 734 731 728 724 720 717 714 711 709 708 706 705 704 703 702 701 702 702 701 701 701 702 702 703 703 703 703 703 704 705 705 706
824 822 820 818 816 814 812 810 808 806 804 801 799 796 794 791 789 786 784 782 779 776 774 772 770 767 765 762 759 756 754 751 749 746 744 740 738 735 733 730 726 723 720 716 713 711 708 706 705 704 703 702 702 702 703 702 702 701 700 701 702 702 702 703 703 704 704 704 705
824 822 820 818 816 814 812 810 808 806 804 801 799 796 794 792 789 787 784 782 780 777 775 772 770 768 766 763 760 757 755 752 750 748 745 742 739 736 734 732 729 725 722 719 716 714 711 709 707 706 705 703 703 703 704 704 702 701 700 700 700 701 702 703 703 704 704 704 704
825 823 820 818 816 814 812 810 808 805 803 801 798 796 794 791 789 786 784 781 779 777 775 773 771 769 766 764 761 759 756 754 751 749 746 743 740 738 735 733 731 728 725 722 720 717 715 712 710 709 707 705 705 705 705 704 703 702 700 700 700 700 702 703 704 704 704 704 704
825 823 821 819 817 815 812 810 808 805 803 801 798 796 794 791 789 786 784 781 779 777 775 774 771 769 767 764 762 759 757 755 752 750 747 744 742 739 736 735 733 730 728 725 723 720 718 716 714 712 710 708 707 707 706 705 704 703 702 701 701 701 702 703 704 704 704 704 705
826 824 821 819 817 815 812 810 808 805 803 800 798 796 794 791 789 786 784 782 780 777 775 774 772 770 768 765 762 760 758 755 753 750 748 745 743 740 738 735 734 732 730 727 725 724 721 719 717 715 713 711 710 709 708 707 706 705 704 703 703 703 703 704 704 704 704 705 705
826 824 822 820 817 815 812 810 808 805 803 800 798 796 794 791 789 787 785 782 780 777 776 774 772 770 768 766 764 761 759 756 754 751 749 746 744 741 739 737 735 734 732 729 727 726 725 723 720 719 716 715 713 712 711 710 709 708 707 706 706 705 705 705 705 705 705 705 706
826 824 822 820 817 815 813 810 808 805 803 800 798 796 794 791 789 787 785 782 780 778 776 774 773 771 769 767 765 762 760 757 755 752 750 748 745 742 740 737 735 734 733 731 729 728 727 725 724 722 720 718 716 715 714 713 712 711 710 709 708 708 707 707 706 706 706 706 706
826 824 822 820 817 815 813 810 808 805 803 800 798 796 794 791 789 787 785 782 780 778 776 775 773 771 770 768 765 763 761 759 756 753 751 749 746 743 741 738 736 735 734 733 731 729 728 727 726 724 722 721 719 718 717 716 715 714 713 712 711 710 709 709 708 708 708 708 708
826 824 822 820 817 815 813 810 808 806 803 801 799 796 794 792 790 787 785 783 781 779 776 775 773 772 770 768 766 764 762 760 757 755 752 750 747 745 742 740 737 735 734 734 733 731 729 728 727 726 725 723 722 720 720 719 718 717 715 715 714 712 712 711 710 710 710 710 711
826 824 821 819 817 815 813 811 809 806 804 801 799 797 795 792 790 788 785 783 781 779 777 775 774 772 770 768 766 765 763 761 759 756 754 751 749 746 744 741 739 737 735 734 734 733 730 729 728 727 726 725 724 723 722 721 720 719 718 717 716 715 714 714 713 713 713 713 713
826 824 821 819 817 815 813 811 809 806 804 802 800 797 795 793 790 788 786 784 782 780 778 775 774 772 770 769 767 765 763 761 759 757 755 753 750 748 745 743 741 738 736 735 735 734 731 730 728 727 727 726 725 725 724 723 722 721 720 720 719 718 717 716 716 715 715 715 715
825 824 821 819 817 815 813 811 809 807 805 802 800 798 795 793 791 789 787 785 782 780 778 776 775 773 771 769 768 766 764 762 760 758 756 754 751 749 747 745 742 740 738 735 735 734 733 730 729 729 728 727 727 726 725 725 724 723 722 721 721 720 720 719 718 718 717 717 717
826 824 821 819 817 815 813 811 809 807 805 803 801 798 796 794 792 789 787 785 783 781 779 778 775 774 772 770 768 766 764 762 760 759 756 754 752 750 748 746 744 741 739 736 735 734 733 731 730 730 729 729 728 728 727 726 725 725 724 723 723 722 721 721 720 720 720 719 719
826 824 821 820 817 815 813 812 810 808 806 804 801 799 796 794 792 790 788 786 784 782 781 779 777 775 773 770 769 767 765 763 761 759 757 755 753 751 749 747 745 742 740 737 735 734 733 732 731 731 731 730 730 729 728 728 727 726 725 725 724 723 723 722 722 721 721 721 720
826 824 822 820 818 815 814 812 810 808 806 804 801 799 797 795 793 791 789 787 785 783 781 779 777 775 773 771 769 767 765 763 761 760 758 756 754 752 750 748 746 744 741 738 736 735 734 734 733 733 732 732 731 730 730 729 728 728 727 726 726 725 725 724 723 723 723 722 722
826 824 822 820 818 816 814 812 810 809 807 805 802 800 798 795 794 792 790 788 786 784 782 780 777 775 773 771 770 768 766 764 762 760 759 757 755 753 751 749 747 745 742 740 738 737 736 735 735 735 734 734 733 732 731 731 730 729 729 728 727 727 726 725 725 725 724 724 723
826 824 822 820 818 816 814 812 811 809 807 805 802 800 798 796 794 792 790 788 787 785 783 780 778 776 774 772 770 769 767 765 763 761 760 758 756 754 752 750 748 746 744 742 740 739 738 738 737 737 736 735 734 734 733 732 731 731 730 730 729 728 728 727 727 726 726 725 725
826 824 822 820 819 816 814 813 811 809 807 805 803 800 799 796 794 792 790 789 787 785 784 781 780 777 775 773 771 769 768 766 764 762 760 759 757 755 754 752 750 747 745 744 742 741 740 740 739 738 738 737 736 735 735 734 733 732 731 731 730 730 729 729 728 728 727 727 726
827 825 823 821 819 817 815 813 811 810 807 805 803 801 799 797 795 793 791 790 788 786 784 782 780 778 775 774 772 770 768 766 765 763 761 760 758 756 754 752 750 749 746 745 744 742 741 741 740 740 739 738 737 737 736 735 734 734 733 732 732 731 730 730 730 729 729 729 728
827 825 823 821 819 817 815 813 812 810 808 806 803 801 799 797 795 794 792 790 788 786 784 782 780 778 776 774 772 770 769 767 765 764 762 760 759 757 755 753 751 750 747 746 745 744 742 741 741 740 740 739 739 738 737 736 736 735 735 734 733 733 732 731 731 730 730 730 730
828 826 824 821 819 817 815 814 812 810 808 806 804 802 800 798 795 794 792 790 788 786 784 782 780 778 776 774 772 771 770 768 766 765 763 761 760 758 756 754 752 750 749 747 746 745 743 742 741 741 740 740 740 739 738 737 737 736 736 735 735 734 733 733 732 732 732 732 731
828 826 824 822 820 818 816 814 813 811 809 807 805 803 800 798 796 794 793 791 789 787 785 783 781 779 777 775 773 772 770 769 767 766 764 762 761 759 757 755 753 751 750 748 747 746 744 743 742 742 741 741 740 740 739 738 738 737 736 736 736 735 735 734 734 733 733 733 733
829 827 825 822 820 818 816 815 814 812 810 807 805 803 801 799 797 795 793 791 790 788 786 784 782 780 778 776 774 772 771 770 768 766 765 763 762 760 759 756 755 753 751 749 748 747 746 745 744 743 742 741 741 740 740 739 738 738 737 737 736 736 736 735 735 735 735 734 734
829 827 825 823 820 819 817 816 814 812 810 808 806 803 801 799 797 795 794 792 790 788 786 785 782 780 778 776 775 773 771 770 769 767 766 764 763 761 760 757 755 754 752 750 749 748 747 745 745 744 743 742 741 741 740 740 739 738 738 738 737 737 737 737 736 736 736 736 735
830 827 825 823 821 819 818 816 815 813 811 809 806 804 802 800 798 795 794 792 790 789 787 785 782 780 779 777 775 773 772 770 769 768 766 765 763 762 760 758 756 755 753 751 750 749 748 747 745 745 744 743 743 742 741 741 740 739 739 739 738 738 738 738 738 737 737 737 737
Wind_Speed
25 24 23 22 22 22 22 21 22 23 23 23 24 24 24 24 24 24 25 25 25 26 27 28 28 29 30 32 33 33 33 33 34 34 35 35 35 35 35 34 33 33 33 33 33 33 33 31 30 29 28 28 28 28 27 26 26 27 28 28 28 29 31 33 31 29 28 28 26
26 26 24 23 23 23 23 23 23 24 25 24 23 24 24 24 24 25 25 26 27 28 29 29 30 31 32 33 33 33 33 33 34 35 36 36 36 35 34 34 33 33 33 33 33 33 32 31 30 29 28 28 28 27 26 25 25 26 27 28 27 27 29 31 31 29 28 27 26
26 26 25 25 25 25 24 24 25 26 27 25 25 24 24 24 24 25 26 27 28 29 29 30 31 32 32 33 33 33 33 34 35 35 36 36 35 35 34 34 34 34 33 33 33 32 32 31 30 29 28 28 27 26 24 23 23 24 26 27 25 25 26 29 30 28 26 25 25
27 27 27 26 26 26 26 25 26 28 27 25 25 25 25 25 25 26 27 29 29 30 30 31 32 32 32 33 33 34 35 35 35 35 35 35 35 35 34 34 34 34 34 33 33 33 32 31 30 28 27 27 26 23 20 19 19 20 22 24 23 23 24 26 28 28 24 20 21
27 27 27 26 27 26 26 26 27 28 27 25 25 25 26 26 26 27 29 30 30 30 32 33 32 32 32 33 35 36 36 36 35 34 34 34 34 33 33 34 34 34 33 33 33 33 32 31 29 28 27 26 25 21 17 13 12 13 15 17 19 21 23 24 25 24 21 18 17
27 27 27 27 27 27 26 27 27 27 26 25 25 26 27 28 28 29 30 31 31 32 33 32 31 32 33 35 36 36 36 35 34 33 33 33 33 33 33 33 33 33 33 32 33 33 32 31 29 27 26 25 24 20 15 10 6 6 7 9 11 16 20 23 23 22 19 17 15
27 27 27 27 27 27 28 28 28 27 26 26 26 27 29 30 30 31 32 32 31 32 32 31 32 33 34 35 36 36 35 34 34 33 33 33 33 33 33 33 33 33 33 32 32 32 31 30 28 26 24 23 22 20 15 8 3 4 7 7 5 8 15 20 20 18 16 15 14
27 27 27 27 27 28 29 29 28 27 26 26 27 28 30 31 31 32 32 32 31 31 32 32 33 34 35 35 34 34 34 33 33 33 33 32 33 33 33 33 33 33 33 32 32 31 31 30 27 25 23 22 22 20 15 8 2 3 6 7 4 2 8 13 14 14 13 13 12
27 27 27 28 28 28 29 29 28 27 26 26 27 29 31 31 31 32 32 32 31 32 32 32 33 34 34 34 33 33 32 32 32 32 32 32 33 33 33 33 32 32 32 32 31 31 31 29 27 25 23 22 21 20 17 11 5 4 7 9 7 4 1 6 8 8 8 8 8
27 27 27 28 28 29 29 29 28 26 26 26 28 30 31 31 32 32 32 32 32 33 33 32 33 33 33 33 32 32 32 32 32 32 32 32 32 32 32 31 31 32 32 32 31 30 30 28 26 24 23 22 22 21 19 15 11 9 10 12 10 7 6 5 4 3 3 4 4
28 28 27 27 28 29 29 29 27 26 26 27 29 30 31 32 33 33 33 32 33 33 32 32 33 33 32 32 32 32 32 32 31 31 31 31 31 30 30 29 29 29 29 29 29 29 28 25 23 22 22 22 22 22 21 19 17 15 13 12 11 10 9 9 8 6 4 3 3
28 28 28 28 29 29 29 28 27 26 26 28 29 30 31 32 33 33 33 33 34 33 32 32 32 32 32 32 33 33 33 32 32 31 30 30 30 29 28 27 26 25 26 26 27 27 26 23 20 19 20 21 22 23 23 23 22 21 19 16 14 12 11 11 10 9 7 5 3
28 28 28 28 29 29 29 28 27 27 27 28 29 30 31 32 33 33 33 34 33 32 32 32 31 31 32 33 34 34 33 32 32 31 30 29 29 30 30 28 26 25 23 23 24 24 23 20 17 16 17 19 21 23 25 25 25 25 24 23 20 18 16 16 15 13 11 8 6
28 28 28 29 29 29 29 29 27 27 27 29 30 30 31 32 32 33 33 33 32 31 32 32 31 31 31 33 34 34 34 33 32 31 30 29 29 31 31 30 29 26 24 21 21 20 18 16 14 13 14 16 17 20 24 27 27 27 26 25 23 22 20 18 18 16 14 11 9
29 29 29 29 29 29 29 29 28 27 28 29 29 30 31 31 32 32 32 32 31 31 32 32 32 31 31 32 34 34 34 33 33 33 32 30 30 30 30 31 31 29 26 23 21 18 14 12 11 11 12 14 14 16 20 26 27 27 25 23 22 20 18 17 17 16 15 13 11
29 29 29 29 30 30 29 29 28 27 28 29 30 30 31 31 32 32 32 31 31 31 31 31 31 31 31 32 34 34 34 34 34 34 33 32 30 29 29 30 31 31 29 26 24 21 18 13 10 10 11 12 12 11 11 16 19 20 19 18 17 16 15 14 14 15 14 13 12
29 29 29 30 30 30 30 29 28 28 29 30 31 31 31 31 32 32 31 30 31 30 30 31 31 31 32 33 34 34 35 34 34 35 35 33 31 29 28 28 30 32 31 29 27 25 23 20 16 13 12 11 10 10 8 3 2 6 8 8 9 9 10 11 12 12 12 12 11
29 30 30 30 30 31 31 30 30 30 30 32 32 32 32 32 33 32 31 31 31 30 29 30 29 29 30 32 34 34 33 34 34 35 35 35 34 31 28 27 29 32 32 31 29 28 26 25 21 18 15 13 11 11 11 12 11 9 9 10 9 8 7 7 8 9 10 9 9
30 30 31 31 31 31 31 31 31 31 32 33 33 33 33 33 34 34 34 34 32 30 29 29 28 28 29 31 32 32 32 32 33 34 35 35 35 33 30 26 27 30 32 32 31 30 29 27 25 23 21 18 16 15 15 15 16 16 16 16 15 14 12 11 9 8 8 8 7
30 31 31 31 31 32 32 31 32 32 33 34 34 34 34 34 34 35 35 35 33 32 30 28 27 27 29 30 32 32 32 32 32 33 34 35 35 35 32 27 24 26 30 31 31 31 30 30 29 28 27 25 23 21 21 20 21 21 21 21 20 19 18 17 16 14 13 12 10
30 31 31 32 32 32 32 32 32 33 34 35 35 34 34 35 34 34 34 34 34 32 30 27 26 26 27 29 30 32 32 31 32 33 34 34 34 34 34 30 25 22 25 29 30 30 30 30 30 30 30 29 28 27 26 25 25 24 24 24 23 22 21 20 20 19 19 18 16
31 32 32 32 33 33 33 32 33 33 34 35 35 35 35 35 34 34 34 34 34 33 31 27 25 24 25 27 29 30 31 32 33 33 33 33 33 33 34 32 29 23 21 25 27 28 29 29 29 29 29 29 29 29 28 28 27 26 26 25 25 24 23 23 22 22 22 22 21
31 32 33 33 33 34 33 33 33 34 35 35 35 36 35 35 34 34 34 34 34 34 31 27 24 23 24 26 27 29 30 31 33 33 33 32 32 32 32 32 31 26 21 20 23 25 26 27 27 28 28 28 28 28 28 27 27 26 26 26 25 25 25 24 24 24 24 24 23
32 32 33 33 34 34 34 33 34 34 35 35 35 36 35 35 34 34 34 34 35 34 32 27 24 22 23 25 26 28 29 30 31 32 32 32 31 31 31 31 31 29 25 21 19 20 22 23 25 26 26 26 26 26 26 26 26 25 25 25 24 24 24 24 24 24 24 23 23
32 33 33 34 35 34 34 34 34 34 35 35 35 35 36 35 34 33 34 34 34 34 33 29 24 22 23 25 26 27 27 28 29 30 31 31 30 30 29 29 30 29 28 25 20 17 18 20 22 24 24 24 24 24 25 25 24 24 24 23 23 23 23 23 22 22 22 22 21
32 33 34 35 35 34 33 33 34 35 35 35 36 36 36 35 34 33 33 33 34 34 33 31 26 23 23 25 26 26 27 27 28 29 30 30 30 30 30 29 29 28 28 29 24 18 16 18 20 21 22 22 23 23 23 23 23 23 22 22 22 21 21 21 21 21 20 20 19
32 33 34 35 35 34 33 33 34 35 36 35 35 35 35 35 34 33 33 32 32 33 33 31 28 25 24 26 27 27 27 27 27 27 28 29 30 30 31 30 28 28 28 30 28 19 14 17 19 20 21 21 21 21 21 21 21 21 21 21 20 20 19 19 19 19 19 19 18
33 33 35 35 35 34 33 33 34 35 35 35 35 35 35 34 34 33 32 32 32 32 32 30 28 27 27 27 27 27 27 27 26 26 27 28 29 30 31 31 30 28 28 30 30 20 12 16 18 19 19 20 20 20 21 21 21 20 20 20 19 18 18 17 17 17 17 17 17
33 34 35 35 34 33 33 33 33 33 34 34 35 35 34 34 33 33 32 32 31 30 30 29 28 28 28 28 28 28 28 27 26 26 26 27 28 29 30 30 31 29 29 32 30 18 10 14 17 18 18 18 19 20 20 20 20 19 19 18 18 17 17 17 16 16 16 16 16
34 35 35 35 34 33 33 33 32 32 33 34 34 34 34 33 33 32 32 31 30 29 29 29 29 28 28 28 28 28 28 27 26 25 25 26 27 29 30 30 30 31 32 33 28 14 11 14 16 17 17 18 18 19 19 19 18 18 17 17 17 17 17 17 17 17 16 16 16
34 34 34 34 34 33 32 33 32 32 32 33 34 34 33 32 32 31 30 29 28 28 29 30 30 30 29 28 28 28 28 27 26 25 24 25 26 27 28 29 30 31 33 33 22 12 14 16 16 16 16 17 18 18 18 17 17 16 16 16 17 17 18 19 19 19 18 18 17
34 34 34 34 34 33 32 32 32 31 32 33 34 33 32 32 31 30 29 28 27 28 29 30 30 30 29 28 27 27 27 27 26 25 24 23 25 26 27 28 29 31 32 30 18 16 17 17 16 15 15 16 17 17 16 16 15 15 15 16 17 18 19 20 20 21 20 20 20
34 34 34 34 33 33 32 32 31 31 32 33 33 32 32 32 32 31 29 27 26 27 28 29 29 29 28 27 27 27 26 25 25 24 23 23 23 25 26 26 27 29 30 28 18 17 18 16 15 14 14 15 15 15 14 14 14 15 15 16 17 18 18 19 20 21 21 22 22
34 34 34 33 33 32 32 32 31 30 31 33 33 33 32 32 32 31 29 27 26 26 27 28 28 28 27 27 26 26 25 24 24 23 22 22 23 24 25 26 26 27 29 27 17 15 17 15 14 13 13 13 13 13 13 13 13 14 16 17 17 18 18 19 20 20 21 21 21
34 34 33 33 32 32 32 31 30 30 31 32 33 33 33 32 31 30 29 27 26 27 28 28 28 28 28 27 26 25 24 24 23 23 22 22 22 24 25 26 25 25 27 28 17 13 15 14 13 12 12 12 12 11 11 12 13 14 16 17 18 19 20 20 20 20 20 20 20
33 33 32 32 32 32 31 30 29 30 31 32 32 33 33 32 32 30 29 27 27 27 28 29 29 30 29 28 27 25 24 23 23 22 22 22 22 24 25 26 25 24 26 28 19 14 13 13 13 12 11 11 10 10 10 10 11 13 15 17 19 20 21 21 21 20 20 19 19
32 32 31 32 32 31 30 28 28 29 31 32 32 32 32 32 31 30 29 27 28 28 28 29 30 30 30 28 26 24 23 23 22 22 22 22 22 23 24 26 25 24 24 27 24 16 11 12 12 12 11 9 9 8 8 8 9 10 12 14 16 18 19 20 20 20 20 19 18
32 31 31 31 31 30 28 26 26 28 31 32 32 31 31 30 30 29 28 27 28 28 28 29 30 30 29 27 25 23 22 22 23 23 23 23 23 23 24 25 25 24 23 26 27 19 11 10 10 11 10 8 7 6 6 6 6 8 9 11 13 15 16 17 18 18 18 18 18
31 31 31 31 31 30 26 24 26 28 31 31 31 31 30 29 29 29 28 28 28 27 27 28 30 30 29 26 24 23 21 21 23 23 23 23 23 22 23 25 25 24 23 25 28 25 16 10 9 9 9 7 6 5 5 4 5 6 8 9 10 12 13 14 15 15 15 16 16
30 30 31 31 31 28 25 23 25 29 31 31 31 30 29 28 28 29 29 29 28 27 27 27 30 30 29 25 23 22 21 20 22 23 24 23 23 22 23 24 24 24 23 24 27 28 24 14 10 9 9 8 6 5 4 3 3 4 6 8 9 10 11 12 12 13 13 13 14
29 30 31 31 30 27 24 23 26 30 32 31 30 28 27 28 29 29 29 29 28 28 27 28 30 30 29 26 24 22 21 21 21 22 23 23 23 23 23 24 24 24 23 23 25 28 28 22 14 10 9 9 7 6 4 3 2 3 5 7 9 10 11 11 11 11 11 12 12
Wind_Direction
349 349 348 346 344 342 340 339 339 339 337 335 333 332 331 330 329 328 327 326 325 323 321 319 317 316 315 314 313 312 312 311 312 312 311 310 308 307 307 307 307 307 307 307 307 307 306 305 303 300 298 298 298 298 298 299 302 303 299 290 278 264 252 245 238 226 212 205 204
348 348 347 346 344 343 341 340 339 338 337 335 333 332 332 331 330 328 327 326 324 323 321 319 317 316 314 313 313 312 312 311 311 310 310 309 308 307 307 306 306 306 307 307 307 306 305 303 302 299 297 296 295 294 294 296 299 301 297 288 276 263 252 245 239 228 214 204 201
347 347 346 345 345 344 343 341 339 338 336 334 334 333 332 331 330 328 326 325 323 322 320 319 318 316 315 315 314 313 312 311 310 309 308 308 307 307 306 306 305 305 306 306 306 305 303 302 300 298 295 293 290 289 290 293 295 297 294 285 273 260 249 244 239 230 217 202 195
346 347 346 345 345 344 343 341 339 337 336 334 334 333 333 331 330 328 326 325 323 322 321 320 318 317 317 316 315 314 313 311 310 309 308 307 307 306 306 305 304 304 305 305 305 304 303 301 299 296 293 289 286 286 291 296 296 293 289 280 269 256 245 240 236 231 219 200 189
345 346 346 345 344 344 343 341 339 337 335 334 334 334 333 332 330 329 328 327 325 323 322 321 320 319 318 318 317 315 314 313 312 310 308 307 306 305 305 304 304 303 303 304 304 304 303 300 297 294 291 286 282 284 292 302 300 293 286 278 265 251 240 234 230 225 218 205 192
343 344 344 344 344 343 342 341 339 337 336 335 334 334 334 333 331 330 329 328 325 324 324 323 322 322 321 320 319 317 316 314 313 310 308 307 305 305 304 303 302 302 302 302 303 303 302 299 295 293 289 284 278 278 285 303 311 314 309 294 267 244 232 225 221 217 212 204 194
343 343 344 344 344 343 342 340 338 337 336 336 335 334 334 333 332 331 330 330 327 327 327 327 325 324 323 322 321 320 318 316 314 312 310 307 305 304 303 302 301 301 301 301 302 302 301 298 294 290 287 282 273 270 272 287 318 352 343 327 287 229 214 209 205 201 197 193 187
343 344 345 345 344 343 342 340 339 338 337 337 336 335 335 334 333 332 332 332 330 330 330 329 327 327 326 325 324 323 322 320 318 315 312 309 306 305 303 301 300 299 299 299 301 301 300 297 292 288 285 279 271 264 260 259 269 344 325 315 309 213 180 180 181 180 179 177 179
344 345 345 345 344 343 342 341 339 338 337 337 336 336 336 336 335 335 334 333 333 333 332 331 330 330 330 330 330 329 327 325 322 320 317 313 310 307 304 301 299 298 298 299 300 300 299 295 291 287 283 276 267 258 249 239 228 251 276 284 294 308 91 124 137 146 152 157 164
344 344 345 345 344 343 342 341 340 339 338 337 337 336 337 337 337 337 336 335 335 335 334 334 334 335 335 336 335 334 332 330 328 325 322 319 316 313 309 304 301 299 298 299 300 299 297 292 289 286 282 274 264 253 242 230 221 229 252 271 286 312 354 25 44 71 99 109 110
344 344 344 345 344 344 343 342 341 340 339 338 338 337 337 338 338 338 337 337 337 336 336 337 338 339 340 340 340 338 336 334 332 330 329 328 327 324 321 316 311 306 303 301 300 298 294 288 287 287 283 275 263 251 240 229 222 224 238 258 273 297 328 350 357 6 23 47 60
344 344 344 345 345 344 343 343 342 341 340 339 339 338 338 338 339 339 339 339 338 338 338 339 341 343 344 344 344 343 341 339 338 336 336 337 339 339 337 334 328 321 314 308 304 298 291 285 287 289 288 280 268 255 243 234 227 226 230 240 254 273 292 305 315 325 336 347 358
345 345 345 346 346 345 344 343 342 341 340 339 339 339 338 338 339 340 340 339 339 339 339 341 343 345 347 348 348 347 346 345 343 342 342 344 346 349 349 348 344 337 329 319 312 302 291 283 288 296 297 289 274 259 247 238 233 230 231 235 242 252 261 268 275 284 296 309 315
346 346 346 347 347 346 345 344 343 341 340 339 338 338 338 338 339 340 341 340 339 339 340 341 343 345 347 350 351 351 351 349 348 347 346 347 349 353 355 356 355 351 344 337 329 313 296 283 289 304 313 308 289 267 250 240 235 233 233 236 240 243 244 246 251 258 268 281 289
346 346 347 347 347 347 346 344 343 341 339 338 337 337 337 337 338 340 341 340 339 340 341 342 342 344 347 350 353 355 355 354 353 351 349 348 350 354 358 1 3 2 360 357 353 343 324 305 305 318 329 329 314 285 257 241 235 234 235 237 241 241 238 236 237 241 247 256 266
347 347 347 347 347 346 346 344 343 341 339 338 337 337 337 337 338 340 341 341 340 340 341 343 343 344 346 351 354 357 357 356 355 354 353 351 351 353 359 4 8 10 11 10 11 10 7 1 356 353 351 348 340 320 281 247 234 230 229 231 234 235 234 232 231 232 234 239 247
347 347 346 346 346 345 344 344 342 340 339 337 337 337 337 337 339 340 341 342 341 340 341 343 344 345 347 351 355 358 359 358 357 356 355 353 352 353 357 5 12 16 18 18 18 19 20 22 23 22 20 17 15 11 6 350 215 192 187 189 197 205 213 218 220 220 221 223 227
348 347 346 345 345 344 343 342 341 340 339 338 338 338 338 339 340 340 342 344 343 341 341 343 345 347 349 351 356 358 359 358 357 356 356 356 356 355 356 5 15 21 24 24 24 24 24 25 27 30 34 41 45 46 45 46 56 77 98 106 119 135 152 169 184 192 195 196 198
348 347 346 345 344 343 342 342 341 340 339 340 341 341 341 341 342 343 345 347 346 343 342 343 346 349 351 353 356 359 360 359 358 357 357 358 359 358 358 2 14 23 27 29 30 31 31 31 32 34 38 45 51 55 57 56 56 62 71 78 83 89 96 101 112 127 139 147 154
349 347 346 344 343 343 342 342 341 341 342 343 344 344 343 343 344 345 346 347 348 346 344 345 348 351 353 355 358 360 1 1 359 358 358 359 1 1 0 359 8 21 28 31 32 34 36 37 37 39 41 45 49 53 55 56 57 59 62 66 70 73 77 79 81 84 87 92 99
348 347 346 344 344 344 344 343 343 343 344 345 346 345 345 345 346 346 347 348 348 347 346 346 349 352 355 357 358 360 1 2 2 2 1 0 1 2 2 0 1 12 26 30 31 33 36 38 39 41 42 44 46 48 50 52 54 55 57 60 63 67 70 72 72 71 71 70 72
347 346 346 345 345 346 346 345 345 345 346 347 347 347 347 347 347 347 348 349 350 349 348 347 351 354 356 357 358 359 1 3 5 6 5 3 2 2 3 2 0 4 17 29 30 30 32 35 38 41 42 43 44 46 47 49 50 51 53 55 58 61 63 65 66 66 65 65 64
346 346 346 346 347 348 348 347 346 347 347 348 348 348 348 348 348 348 349 350 351 351 350 349 352 356 357 358 359 360 1 2 5 7 7 6 4 3 2 2 1 360 5 20 29 30 29 32 35 38 41 43 44 44 45 46 47 47 49 51 53 55 57 58 59 60 61 62 62
345 346 347 348 349 350 350 349 349 348 348 348 348 348 349 349 349 349 349 351 352 353 351 349 352 355 358 359 360 360 360 0 2 4 5 6 5 3 1 1 1 359 359 6 21 29 31 32 34 36 39 42 43 44 44 44 44 45 46 47 49 51 52 53 53 54 54 55 56
346 346 347 349 350 351 351 351 350 349 349 349 348 348 349 349 349 348 349 350 352 353 352 350 351 354 357 359 360 359 359 359 0 1 1 2 3 2 1 360 359 357 356 356 7 25 36 37 35 35 37 40 42 43 44 44 44 44 44 45 46 48 49 50 50 50 50 50 50
346 347 348 349 351 351 352 351 351 350 350 349 349 349 349 350 349 349 349 350 351 353 353 352 350 351 355 357 358 358 357 358 359 359 359 359 360 360 360 359 357 355 352 351 356 14 37 41 37 35 36 39 41 43 44 44 44 44 44 44 45 46 47 48 48 48 49 49 48
347 348 348 350 351 351 352 352 352 352 351 350 349 349 349 350 350 349 349 349 350 352 353 353 350 348 350 354 356 356 355 356 357 358 358 358 357 358 358 357 355 353 350 347 349 1 31 42 41 37 35 37 40 43 44 44 44 44 44 44 45 46 47 48 47 47 47 48 48
348 348 348 350 350 351 352 352 353 352 351 349 349 349 349 350 350 350 349 349 350 351 352 352 350 348 347 349 352 354 354 354 355 356 357 357 356 357 356 355 353 351 348 344 344 352 27 46 44 39 36 36 39 42 44 45 45 45 45 44 45 47 49 50 48 47 46 46 47
348 348 349 349 349 350 352 352 352 351 350 349 349 349 350 350 351 350 350 349 349 350 350 350 349 348 348 348 350 352 353 353 353 354 355 355 355 355 355 355 353 351 347 343 341 350 35 52 48 43 40 38 39 42 44 46 47 47 46 46 47 50 52 53 53 51 50 49 48
348 348 348 348 349 350 351 351 351 350 350 349 349 350 350 350 350 350 350 349 348 347 347 348 348 348 348 349 350 351 351 351 352 353 354 354 354 354 354 354 353 351 348 344 342 359 55 58 51 47 44 41 41 44 47 49 50 50 50 50 51 54 56 58 58 57 56 55 53
348 348 348 348 348 349 349 350 350 350 350 350 350 350 350 349 349 349 348 348 346 345 346 347 348 348 349 350 350 350 350 350 352 353 354 353 353 353 354 355 354 352 348 347 354 32 68 60 54 49 46 44 45 48 51 54 56 57 56 56 56 57 58 59 58 58 58 58 56
348 348 348 347 347 348 348 349 349 349 349 350 350 349 349 348 348 348 349 348 346 345 346 347 347 347 347 348 349 350 350 350 350 352 354 354 354 354 354 356 355 352 350 354 17 54 66 56 52 49 47 46 48 51 55 59 62 63 63 62 60 58 58 57 56 56 56 57 56
348 348 347 347 347 347 347 347 347 348 349 349 349 349 348 347 348 349 349 348 346 345 345 346 346 345 345 345 346 347 348 348 350 353 356 357 356 355 356 358 357 353 353 360 27 54 56 49 49 49 48 48 51 53 57 61 65 67 67 65 63 61 58 56 54 53 52 53 54
347 347 346 346 346 346 346 346 346 347 348 348 349 348 348 347 347 347 347 347 345 345 345 346 345 345 345 345 345 346 346 348 351 355 358 360 359 357 357 360 360 356 355 360 22 47 49 44 44 45 46 48 52 55 59 63 66 68 68 68 67 64 61 58 54 52 49 48 49
346 345 345 345 345 344 344 344 345 347 348 348 348 347 347 347 346 346 346 345 344 345 346 347 347 347 348 348 347 346 347 349 353 357 0 2 1 358 358 1 2 360 357 357 12 39 46 41 39 38 39 44 51 55 59 63 65 66 67 68 67 65 62 59 56 52 49 46 45
346 345 344 343 343 343 342 343 345 347 348 348 347 346 346 345 346 346 346 345 345 346 347 348 349 349 349 349 347 346 348 353 357 0 3 4 2 359 358 1 3 3 359 357 7 31 47 41 34 29 30 37 45 51 56 60 62 63 62 62 60 59 58 57 55 52 49 45 43
346 345 344 343 342 341 341 343 347 349 349 347 346 345 344 344 344 346 346 346 346 347 347 348 349 349 349 348 345 346 350 357 2 3 4 5 4 0 359 1 3 3 360 356 2 20 45 38 31 25 24 29 37 42 47 52 55 56 55 52 50 49 50 51 51 50 48 45 42
346 346 345 343 342 340 341 345 349 350 349 347 345 344 344 344 344 345 346 346 346 346 346 347 348 349 349 348 345 346 352 0 5 6 6 6 5 2 360 1 2 2 358 353 358 9 32 35 31 24 20 21 25 30 33 38 44 47 47 45 41 39 39 42 44 45 45 43 40
347 347 347 345 343 341 342 348 352 352 350 347 345 344 344 343 343 344 345 347 347 346 345 345 347 349 350 349 347 347 352 358 3 5 6 5 4 3 2 2 2 360 356 352 356 4 17 29 28 19 12 10 12 16 19 24 34 40 43 43 41 37 33 32 34 36 38 40 40
349 349 349 348 345 343 345 351 353 352 350 348 346 344 344 343 343 344 347 349 349 348 346 345 347 350 352 350 348 347 348 351 357 1 3 2 3 3 3 4 2 359 355 353 355 1 8 16 19 10 1 357 356 358 1 6 21 39 46 47 46 43 39 34 32 32 34 38 41
350 351 351 350 347 346 348 352 353 351 349 348 346 345 344 344 345 347 349 349 349 348 346 346 348 351 353 353 351 349 347 347 350 355 359 0 2 3 4 4 3 359 355 353 353 357 2 9 13 6 353 346 342 339 336 338 356 40 55 53 51 49 47 44 42 42 44 47 51